Tracking 19476 objects as of 17-Jan-2019
HD Live streaming from Space Station
objects crossing your sky now

COSMOS 1823

Track COSMOS 1823 now!
10-day predictions
COSMOS 1823 is classified as:


NORAD ID: 17535
Int'l Code: 1987-020A
Perigee: 1,486.1 km
Apogee: 1,530.2 km
Inclination: 73.6 °
Period: 116.0 minutes
Semi major axis: 7879 km
RCS: 13.63 m2 (large)
Launch date: February 20, 1987
Source: Commonwealth of Independent States (former USSR) (CIS)
Launch site: PLESETSK MISSILE AND SPACE COMPLEX (PKMTR)
aabbcc
Your satellite tracking list
Your tracking list is empty




NASA's NSSDC Master Catalog

Two Line Element Set (TLE):
1 17535U 87020A   19017.57834337 -.00000015  00000-0  13677-4 0  9991
2 17535  73.6011  75.5647 0027983 165.1744 302.8360 12.41322346446073
Source of the keplerian elements: AFSPC